K5GHS-1 Weather Reports


Display with metric or nautical units.
time (UTC)temp
F
wind
direction
speed
MPH
gust
MPH
rain 1hr
in
rain 24hr
in
rain mn
in
humidity
%
barometer
mb
20260831030414 89 81 0.0 0.0 0.00 0.00 0.00 47 1012.4
20260831025913 89 83 0.0 0.0 0.00 0.00 0.00 47 1012.3
20260831025412 90 74 0.0 0.0 0.00 0.00 0.00 47 1012.3
20260831024908 90 76 0.0 0.0 0.00 0.00 0.00 46 1012.4
20260831024407 90 74 0.0 0.0 0.00 0.00 0.00 45 1012.4
20260831023902 90 72 0.0 0.0 0.00 0.00 0.00 45 1012.2
20260831023400 91 76 0.0 0.0 0.00 0.00 0.00 45 1012.4
20260831022855 91 80 0.0 1.0 0.00 0.00 0.00 44 1012.3
20260831022354 90 78 0.0 1.0 0.00 0.00 0.00 45 1012.1
20260831021849 90 79 0.0 1.0 0.00 0.00 0.00 45 1012.2
20260831021348 90 74 0.0 0.0 0.00 0.00 0.00 45 1011.9
20260831020845 90 78 0.0 0.0 0.00 0.00 0.00 44 1011.8
20260831020344 91 79 0.0 0.0 0.00 0.00 0.00 44 1011.9
20260831015840 91 80 0.0 0.0 0.00 0.00 0.00 44 1011.7
20260831015335 91 78 0.0 0.0 0.00 0.00 0.00 43 1011.7
20260831014835 91 79 0.0 0.0 0.00 0.00 0.00 43 1011.6
20260831014330 91 78 0.0 0.0 0.00 0.00 0.00 43 1011.4
20260831013826 91 79 0.0 1.0 0.00 0.00 0.00 43 1011.4
20260831013326 92 78 0.0 0.0 0.00 0.00 0.00 43 1011.6
20260831012821 92 78 0.0 0.0 0.00 0.00 0.00 42 1011.5
20260831012317 92 79 1.0 1.0 0.00 0.00 0.00 41 1011.5
20260831011816 92 78 0.0 0.0 0.00 0.00 0.00 42 1011.4
20260831011311 93 75 0.0 0.0 0.00 0.00 0.00 41 1011.5
20260831010806 93 75 0.0 0.0 0.00 0.00 0.00 41 1011.5
20260831010301 93 79 0.0 0.0 0.00 0.00 0.00 40 1011.4
20260831005757 94 78 0.0 0.0 0.00 0.00 0.00 40 1011.2
20260831005252 94 78 0.0 0.0 0.00 0.00 0.00 39 1011.3
20260831004747 94 79 0.0 0.0 0.00 0.00 0.00 39 1011.3
20260831004243 95 72 0.0 1.0 0.00 0.00 0.00 39 1011.5
20260831003738 95 83 0.0 1.0 0.00 0.00 0.00 39 1011.3
20260831003235 95 100 0.0 1.0 0.00 0.00 0.00 39 1011.2
20260831002734 95 81 0.0 0.0 0.00 0.00 0.00 39 1011.3
20260831002233 96 78 0.0 2.0 0.00 0.00 0.00 39 1011.2
20260831001729 96 85 0.0 5.0 0.00 0.00 0.00 38 1011.3
20260831001224 96 79 0.0 1.0 0.00 0.00 0.00 38 1011.3
20260831000721 96 100 2.0 5.0 0.00 0.00 0.00 37 1011.5
20260831000218 96 86 0.0 2.0 0.00 0.00 0.00 37 1011.3
20260830235715 96 80 0.0 1.0 0.00 0.00 0.00 37 1011.4
20260830235210 97 89 1.0 6.0 0.00 0.00 0.00 37 1011.6
20260830234704 97 149 2.0 3.0 0.00 0.00 0.00 36 1011.5
20260830234201 97 101 3.0 3.0 0.00 0.00 0.00 36 1011.3
20260830233656 97 89 1.0 6.0 0.00 0.00 0.00 36 1011.4
20260830233151 97 75 0.0 2.0 0.00 0.00 0.00 36 1011.4
20260830232647 98 84 1.0 1.0 0.00 0.00 0.00 35 1011.4
20260830232143 98 97 1.0 1.0 0.00 0.00 0.00 35 1011.4
20260830231639 99 98 2.0 3.0 0.00 0.00 0.00 34 1011.7
20260830231138 99 74 1.0 3.0 0.00 0.00 0.00 34 1011.5
20260830230634 100 101 2.0 5.0 0.00 0.00 0.00 33 1011.5
20260830230133 101 52 0.0 1.0 0.00 0.00 0.00 31 1011.4
20260830225628 101 89 4.0 7.0 0.00 0.00 0.00 31 1011.6
20260830225123 101 121 2.0 5.0 0.00 0.00 0.00 32 1011.4
20260830224622 102 110 0.0 0.0 0.00 0.00 0.00 31 1011.5
20260830224118 102 140 2.0 16.0 0.00 0.00 0.00 30 1011.4
20260830223615 101 110 3.0 3.0 0.00 0.00 0.00 30 1011.6
20260830223114 101 137 1.0 3.0 0.00 0.00 0.00 30 1011.6
20260830222609 102 78 1.0 5.0 0.00 0.00 0.00 29 1011.9
20260830222105 102 126 2.0 3.0 0.00 0.00 0.00 30 1011.7
20260830221601 102 99 1.0 6.0 0.00 0.00 0.00 31 1011.6
20260830221057 101 74 0.0 3.0 0.00 0.00 0.00 29 1011.4
20260830220557 100 96 0.0 1.0 0.00 0.00 0.00 32 1011.7
20260830220055 100 121 1.0 3.0 0.00 0.00 0.00 33 1011.6
20260830215549 99 66 1.0 3.0 0.00 0.00 0.00 35 1011.8
20260830215044 101 80 2.0 6.0 0.00 0.00 0.00 33 1011.7
20260830214539 100 101 3.0 5.0 0.00 0.00 0.00 34 1011.7
20260830214033 100 100 0.0 3.0 0.00 0.00 0.00 34 1011.7
20260830213528 98 117 0.0 3.0 0.00 0.00 0.00 36 1012.1
20260830213024 98 97 1.0 5.0 0.00 0.00 0.00 36 1012.0
20260830212519 99 98 1.0 2.0 0.00 0.00 0.00 36 1011.8
20260830212014 99 86 1.0 1.0 0.00 0.00 0.00 35 1012.0
20260830211509 100 71 1.0 5.0 0.00 0.00 0.00 35 1012.1
20260830211003 101 81 1.0 3.0 0.00 0.00 0.00 34 1012.1
20260830210503 99 95 1.0 3.0 0.00 0.00 0.00 36 1012.1
20260830210003 102 114 3.0 6.0 0.00 0.00 0.00 35 1012.3
20260830205501 102 74 0.0 6.0 0.00 0.00 0.00 34 1012.1
20260830204956 101 74 1.0 2.0 0.00 0.00 0.00 34 1012.1
20260830204455 100 75 1.0 3.0 0.00 0.00 0.00 34 1012.2
20260830203950 100 78 1.0 3.0 0.00 0.00 0.00 35 1012.5
20260830203446 100 95 1.0 2.0 0.00 0.00 0.00 36 1012.5
20260830202945 98 91 0.0 9.0 0.00 0.00 0.00 37 1012.6
20260830202440 100 84 3.0 6.0 0.00 0.00 0.00 35 1012.6
20260830201937 101 105 2.0 5.0 0.00 0.00 0.00 35 1012.6
20260830201435 100 107 1.0 3.0 0.00 0.00 0.00 36 1013.0
20260830200931 100 126 1.0 3.0 0.00 0.00 0.00 36 1012.8
20260830200431 100 92 0.0 1.0 0.00 0.00 0.00 37 1013.0
20260830195925 100 103 3.0 5.0 0.00 0.00 0.00 36 1013.0
20260830195420 100 91 3.0 3.0 0.00 0.00 0.00 35 1013.2
20260830194918 100 144 2.0 3.0 0.00 0.00 0.00 36 1013.2
20260830194413 99 72 0.0 5.0 0.00 0.00 0.00 38 1013.4
20260830193913 97 81 1.0 2.0 0.00 0.00 0.00 38 1013.4
20260830193411 98 78 1.0 5.0 0.00 0.00 0.00 38 1013.2
20260830192907 100 62 1.0 6.0 0.00 0.00 0.00 37 1013.4
20260830192403 99 108 1.0 2.0 0.00 0.00 0.00 38 1013.4
20260830191858 98 108 1.0 1.0 0.00 0.00 0.00 39 1013.6
20260830191357 98 90 0.0 5.0 0.00 0.00 0.00 39 1013.5
20260830190854 99 106 0.0 3.0 0.00 0.00 0.00 38 1013.6
20260830190353 99 85 1.0 7.0 0.00 0.00 0.00 37 1013.8
20260830185852 98 85 1.0 3.0 0.00 0.00 0.00 38 1013.8
20260830185348 99 88 0.0 3.0 0.00 0.00 0.00 38 1013.8
20260830184843 100 111 1.0 2.0 0.00 0.00 0.00 37 1013.9
20260830184342 100 126 1.0 7.0 0.00 0.00 0.00 37 1013.9
20260830183836 100 84 0.0 2.0 0.00 0.00 0.00 38 1013.8
20260830183331 100 66 0.0 3.0 0.00 0.00 0.00 40 1014.1
20260830182827 99 150 1.0 5.0 0.00 0.00 0.00 38 1014.1
20260830182322 99 134 2.0 2.0 0.00 0.00 0.00 38 1014.1
20260830181819 100 73 1.0 2.0 0.00 0.00 0.00 39 1014.3
20260830181314 99 80 2.0 3.0 0.00 0.00 0.00 38 1014.3
20260830180813 98 150 1.0 3.0 0.00 0.00 0.00 40 1014.3
20260830180307 98 132 4.0 6.0 0.00 0.00 0.00 40 1014.6
20260830175802 98 77 1.0 2.0 0.00 0.00 0.00 41 1014.4
20260830175257 99 142 4.0 6.0 0.00 0.00 0.00 41 1014.6
20260830174756 99 126 0.0 3.0 0.00 0.00 0.00 41 1014.7
20260830174252 98 98 1.0 3.0 0.00 0.00 0.00 42 1014.8
20260830173752 97 88 0.0 6.0 0.00 0.00 0.00 44 1014.8
20260830173247 98 93 1.0 2.0 0.00 0.00 0.00 43 1015.1
20260830172744 98 110 2.0 5.0 0.00 0.00 0.00 42 1015.1
20260830172240 98 90 0.0 3.0 0.00 0.00 0.00 43 1015.0
20260830171736 97 98 1.0 2.0 0.00 0.00 0.00 44 1015.2
20260830171230 97 69 1.0 5.0 0.00 0.00 0.00 45 1014.9
20260830170725 97 271 2.0 3.0 0.00 0.00 0.00 44 1015.2
20260830170224 97 107 1.0 3.0 0.00 0.00 0.00 45 1015.5
20260830165724 96 62 0.0 6.0 0.00 0.00 0.00 46 1015.3
20260830165220 96 207 1.0 5.0 0.00 0.00 0.00 45 1015.6
20260830164716 96 171 1.0 5.0 0.00 0.00 0.00 45 1015.5
20260830164211 96 68 0.0 2.0 0.00 0.00 0.00 45 1015.5
20260830163708 96 149 0.0 1.0 0.00 0.00 0.00 46 1015.4
20260830163203 96 85 2.0 2.0 0.00 0.00 0.00 46 1015.2
20260830162658 95 84 0.0 3.0 0.00 0.00 0.00 47 1015.6
20260830162154 95 130 3.0 5.0 0.00 0.00 0.00 48 1015.6
20260830161649 95 81 0.0 3.0 0.00 0.00 0.00 50 1015.7
20260830161143 94 85 0.0 2.0 0.00 0.00 0.00 51 1015.7
20260830160639 94 73 0.0 5.0 0.00 0.00 0.00 51 1015.5
20260830160133 94 80 1.0 5.0 0.00 0.00 0.00 52 1015.6
20260830155630 94 79 1.0 2.0 0.00 0.00 0.00 51 1015.4
20260830155126 94 84 1.0 3.0 0.00 0.00 0.00 51 1015.5
20260830154620 95 98 1.0 3.0 0.00 0.00 0.00 51 1015.6
20260830154116 95 71 1.0 1.0 0.00 0.00 0.00 51 1015.8
20260830153612 94 77 0.0 1.0 0.00 0.00 0.00 51 1015.6
20260830153107 93 102 1.0 2.0 0.00 0.00 0.00 53 1015.9
20260830152606 93 103 0.0 2.0 0.00 0.00 0.00 54 1015.5
20260830152105 92 111 0.0 3.0 0.00 0.00 0.00 55 1015.6
20260830151600 92 66 0.0 3.0 0.00 0.00 0.00 55 1015.5
20260830151054 91 57 1.0 3.0 0.00 0.00 0.00 55 1015.8
20260830150549 91 50 1.0 2.0 0.00 0.00 0.00 55 1015.7
20260830150044 91 65 0.0 1.0 0.00 0.00 0.00 55 1015.5
20260830145543 91 71 1.0 5.0 0.00 0.00 0.00 56 1015.4
20260830145039 90 223 2.0 3.0 0.00 0.00 0.00 56 1015.5
20260830144535 90 70 0.0 1.0 0.00 0.00 0.00 57 1015.6
20260830144030 90 70 1.0 2.0 0.00 0.00 0.00 58 1015.6
20260830143526 89 111 1.0 2.0 0.00 0.00 0.00 57 1015.4
20260830143024 90 80 1.0 1.0 0.00 0.00 0.00 57 1015.5
20260830142519 89 73 1.0 1.0 0.00 0.00 0.00 58 1015.5
20260830142014 88 66 1.0 2.0 0.00 0.00 0.00 60 1015.6
20260830141510 88 76 1.0 2.0 0.00 0.00 0.00 61 1015.4
20260830141010 87 121 1.0 2.0 0.00 0.00 0.00 61 1015.8
20260830140510 88 74 0.0 1.0 0.00 0.00 0.00 61 1015.7
20260830140005 87 72 0.0 1.0 0.00 0.00 0.00 62 1015.5
20260830135500 86 76 0.0 1.0 0.00 0.00 0.00 63 1015.6
20260830134955 85 76 0.0 2.0 0.00 0.00 0.00 64 1015.4
20260830134451 85 74 1.0 2.0 0.00 0.00 0.00 65 1015.7
20260830133946 84 82 0.0 2.0 0.00 0.00 0.00 65 1015.5
20260830133442 84 74 0.0 0.0 0.00 0.00 0.00 66 1015.4
20260830132936 82 92 0.0 1.0 0.00 0.00 0.00 68 1015.3
20260830132433 82 83 1.0 1.0 0.00 0.00 0.00 68 1015.4
20260830131932 82 79 0.0 0.0 0.00 0.00 0.00 68 1015.5
20260830131432 81 77 0.0 1.0 0.00 0.00 0.00 68 1015.3
20260830130926 81 118 2.0 2.0 0.00 0.00 0.00 68 1015.4
20260830130422 81 91 0.0 1.0 0.00 0.00 0.00 68 1015.0
20260830125921 80 116 1.0 2.0 0.00 0.00 0.00 69 1015.2
20260830125417 80 82 0.0 1.0 0.00 0.00 0.00 69 1015.2
20260830124914 80 102 1.0 2.0 0.00 0.00 0.00 69 1014.9
20260830124409 80 97 1.0 1.0 0.00 0.00 0.00 69 1014.9
20260830123906 80 84 0.0 1.0 0.00 0.00 0.00 69 1014.7
20260830123403 80 93 0.0 1.0 0.00 0.00 0.00 69 1014.9
20260830122900 79 75 0.0 1.0 0.00 0.00 0.00 69 1014.8
20260830122354 79 78 0.0 0.0 0.00 0.00 0.00 69 1014.8
20260830121850 79 79 0.0 1.0 0.00 0.00 0.00 69 1014.8
20260830121349 79 75 0.0 0.0 0.00 0.00 0.00 69 1014.6
20260830120844 79 83 0.0 0.0 0.00 0.00 0.00 69 1014.5
20260830120340 79 67 0.0 0.0 0.00 0.00 0.00 69 1014.4
20260830115836 79 81 0.0 1.0 0.00 0.00 0.00 69 1014.3
20260830115332 79 74 0.0 0.0 0.00 0.00 0.00 69 1014.4
20260830114828 79 77 0.0 0.0 0.00 0.00 0.00 69 1014.0
20260830114324 79 77 0.0 0.0 0.00 0.00 0.00 69 1014.3
20260830113819 79 74 0.0 0.0 0.00 0.00 0.00 69 1014.2
20260830113314 80 75 0.0 0.0 0.00 0.00 0.00 69 1014.0
20260830112810 80 69 0.0 0.0 0.00 0.00 0.00 68 1014.2
20260830112306 80 74 0.0 0.0 0.00 0.00 0.00 68 1014.1
20260830111801 80 74 0.0 0.0 0.00 0.00 0.00 67 1013.9
20260830111256 80 78 0.0 0.0 0.00 0.00 0.00 66 1014.0
20260830110756 80 76 0.0 0.0 0.00 0.00 0.00 66 1013.7
20260830110253 80 80 0.0 1.0 0.00 0.00 0.00 64 1014.0
20260830105752 80 89 0.0 1.0 0.00 0.00 0.00 64 1013.7
20260830105248 80 86 0.0 1.0 0.00 0.00 0.00 64 1013.9
20260830104744 80 77 0.0 0.0 0.00 0.00 0.00 65 1013.9
20260830104241 79 77 0.0 0.0 0.00 0.00 0.00 65 1013.8
20260830103740 80 74 0.0 0.0 0.00 0.00 0.00 65 1013.8
20260830103236 80 74 0.0 0.0 0.00 0.00 0.00 65 1013.7
20260830102733 80 75 0.0 0.0 0.00 0.00 0.00 64 1013.7
20260830102229 80 76 0.0 0.0 0.00 0.00 0.00 64 1013.8
20260830101720 80 81 0.0 2.0 0.00 0.00 0.00 62 1013.7
20260830101215 80 66 0.0 0.0 0.00 0.00 0.00 63 1013.8
20260830100714 80 77 0.0 0.0 0.00 0.00 0.00 61 1013.9
20260830100209 81 74 0.0 0.0 0.00 0.00 0.00 62 1013.8
20260830095708 81 77 0.0 1.0 0.00 0.00 0.00 61 1013.7
20260830095204 81 74 0.0 1.0 0.00 0.00 0.00 61 1013.7
20260830094700 81 75 0.0 1.0 0.00 0.00 0.00 60 1013.5
20260830094155 81 77 0.0 1.0 0.00 0.00 0.00 60 1013.5
20260830093650 81 78 0.0 1.0 0.00 0.00 0.00 59 1013.6
20260830093146 81 71 0.0 1.0 0.00 0.00 0.00 61 1013.8
20260830092641 81 72 1.0 1.0 0.00 0.00 0.00 59 1013.6
20260830092138 80 96 0.0 1.0 0.00 0.00 0.00 60 1013.9
20260830091638 81 75 0.0 0.0 0.00 0.00 0.00 59 1013.7
20260830091137 81 77 0.0 2.0 0.00 0.00 0.00 59 1013.8
20260830090632 81 72 0.0 0.0 0.00 0.00 0.00 59 1013.7
20260830090128 81 79 0.0 1.0 0.00 0.00 0.00 57 1013.7
20260830085627 81 84 0.0 1.0 0.00 0.00 0.00 58 1013.8
20260830085123 81 78 0.0 2.0 0.00 0.00 0.00 58 1013.9
20260830084618 82 79 0.0 1.0 0.00 0.00 0.00 57 1013.7
20260830084113 82 73 0.0 1.0 0.00 0.00 0.00 58 1013.5
20260830083609 82 78 0.0 1.0 0.00 0.00 0.00 56 1013.6
20260830083109 83 76 1.0 2.0 0.00 0.00 0.00 55 1013.5
20260830082603 82 75 0.0 1.0 0.00 0.00 0.00 56 1013.7
20260830082059 82 71 1.0 1.0 0.00 0.00 0.00 55 1013.8
20260830081555 83 100 1.0 2.0 0.00 0.00 0.00 55 1013.8
20260830081054 83 79 0.0 1.0 0.00 0.00 0.00 55 1013.9
20260830080549 83 75 1.0 2.0 0.00 0.00 0.00 54 1013.5
20260830080044 83 79 1.0 2.0 0.00 0.00 0.00 54 1013.7
20260830075539 83 86 0.0 1.0 0.00 0.00 0.00 53 1013.8
20260830075034 84 58 1.0 2.0 0.00 0.00 0.00 53 1013.9
20260830074530 84 82 0.0 1.0 0.00 0.00 0.00 54 1013.8
20260830074026 84 72 0.0 2.0 0.00 0.00 0.00 54 1013.8
20260830073522 84 77 0.0 1.0 0.00 0.00 0.00 53 1013.9
20260830073016 84 72 0.0 0.0 0.00 0.00 0.00 53 1014.0
20260830072512 84 78 0.0 0.0 0.00 0.00 0.00 53 1013.9
20260830072012 84 81 0.0 1.0 0.00 0.00 0.00 53 1014.0
20260830071507 84 77 0.0 1.0 0.00 0.00 0.00 59 1014.0
20260830071004 85 76 0.0 1.0 0.00 0.00 0.00 53 1014.0
20260830070500 85 82 0.0 1.0 0.00 0.00 0.00 53 1013.9
20260830065958 85 84 0.0 1.0 0.00 0.00 0.00 50 1013.9
20260830065453 85 79 0.0 1.0 0.00 0.00 0.00 50 1013.9
20260830064950 85 80 2.0 3.0 0.00 0.00 0.00 50 1013.9
20260830064447 86 76 0.0 3.0 0.00 0.00 0.00 49 1014.0
20260830063946 86 87 2.0 3.0 0.00 0.00 0.00 49 1014.1
20260830063441 86 136 2.0 3.0 0.00 0.00 0.00 49 1014.1
20260830062940 86 84 1.0 3.0 0.00 0.00 0.00 49 1013.9
20260830062439 86 82 1.0 2.0 0.00 0.00 0.00 49 1014.0
20260830061934 86 83 0.0 2.0 0.00 0.00 0.00 49 1014.0
20260830061429 86 82 1.0 1.0 0.00 0.00 0.00 49 1014.0
20260830060926 86 119 2.0 3.0 0.00 0.00 0.00 48 1014.2
20260830060422 86 94 1.0 1.0 0.00 0.00 0.00 49 1013.9
20260830055917 86 81 1.0 3.0 0.00 0.00 0.00 50 1013.7
20260830055413 86 137 3.0 5.0 0.00 0.00 0.00 50 1014.0
20260830054908 86 97 2.0 5.0 0.00 0.00 0.00 50 1013.8
20260830054404 86 89 2.0 3.0 0.00 0.00 0.00 51 1013.8
20260830053859 86 86 0.0 3.0 0.00 0.00 0.00 52 1013.8
20260830053355 86 78 0.0 3.0 0.00 0.00 0.00 52 1014.0
20260830052854 86 90 1.0 5.0 0.00 0.00 0.00 53 1014.0
20260830052349 86 91 1.0 1.0 0.00 0.00 0.00 53 1013.9
20260830051845 86 81 0.0 2.0 0.00 0.00 0.00 53 1014.0
20260830051340 86 87 2.0 3.0 0.00 0.00 0.00 53 1013.9
20260830050839 86 77 1.0 3.0 0.00 0.00 0.00 53 1013.7
20260830050334 87 77 1.0 3.0 0.00 0.00 0.00 53 1013.8
20260830045833 87 73 3.0 3.0 0.00 0.00 0.00 52 1013.8
20260830045327 89 77 1.0 3.0 0.00 0.00 0.00 49 1013.8
20260830044827 89 75 1.0 2.0 0.00 0.00 0.00 45 1013.8
20260830044323 88 74 0.0 0.0 0.00 0.00 0.00 46 1013.8
20260830043817 89 79 0.0 1.0 0.00 0.00 0.00 46 1013.8
20260830043312 89 77 0.0 1.0 0.00 0.00 0.00 45 1013.6
20260830042809 88 81 0.0 0.0 0.00 0.00 0.00 46 1013.6
20260830042306 88 75 0.0 0.0 0.00 0.00 0.00 47 1013.5
20260830041803 88 74 0.0 0.0 0.00 0.00 0.00 47 1013.4
20260830041257 87 76 0.0 0.0 0.00 0.00 0.00 48 1013.4
20260830040752 88 82 0.0 1.0 0.00 0.00 0.00 48 1013.6
20260830040249 87 84 1.0 1.0 0.00 0.00 0.00 48 1013.5
20260830035747 87 70 0.0 0.0 0.00 0.00 0.00 48 1013.6
20260830035242 87 73 0.0 0.0 0.00 0.00 0.00 48 1013.3
20260830034737 87 78 0.0 0.0 0.00 0.00 0.00 48 1013.6
20260830034236 87 77 0.0 0.0 0.00 0.00 0.00 48 1013.6
20260830033733 88 76 0.0 0.0 0.00 0.00 0.00 47 1013.5
20260830033232 88 76 0.0 0.0 0.00 0.00 0.00 47 1013.3
20260830032727 88 70 0.0 0.0 0.00 0.00 0.00 47 1013.4
20260830032222 89 75 0.0 0.0 0.00 0.00 0.00 47 1013.3
20260830031717 89 78 0.0 0.0 0.00 0.00 0.00 46 1013.2
20260830031212 89 76 0.0 0.0 0.00 0.00 0.00 46 1013.2